FFM2530 WMKK-WBKK

Flight info

Callsign FFM2530
Flight time 2h 8m
Altitude 35000
Route KIMAT2E KIMAT Y344 VPK M758 VIDIP DCT EGENU
Aircraft B738/M-SDE2E3FGHIRWXY/LB1

Departure

Time 2026-04-23 15:22
Airport Kuala Lumpur International Airport (WMKK)

Arrival

Time 2026-04-23 17:30
Airport Kota Kinabalu International Airport (WBKK)
Time Latitude Longitude Altitude Speed Heading
2026-04-23 14:56 2.75434 101.70901 75 ft 0 kts 326°
2026-04-23 15:11 2.75427 101.70905 75 ft 2 kts 326°
2026-04-23 15:12 2.75414 101.70915 75 ft 2 kts 326°
2026-04-23 15:12 2.75401 101.70923 75 ft 2 kts 326°
2026-04-23 15:12 2.75388 101.70931 75 ft 2 kts 348°
2026-04-23 15:12 2.75373 101.70931 75 ft 2 kts
2026-04-23 15:13 2.75359 101.70927 75 ft 2 kts 32°
2026-04-23 15:13 2.75348 101.70918 75 ft 1 kts 52°
2026-04-23 15:13 2.75345 101.70912 75 ft 1 kts 58°
2026-04-23 15:13 2.75344 101.70911 75 ft 0 kts 56°
2026-04-23 15:15 2.75346 101.70914 75 ft 3 kts 56°
2026-04-23 15:16 2.75382 101.70969 75 ft 14 kts 56°
2026-04-23 15:16 2.75449 101.71067 75 ft 16 kts 55°
2026-04-23 15:16 2.75507 101.71154 75 ft 14 kts 56°
2026-04-23 15:16 2.75559 101.71231 75 ft 13 kts 54°
2026-04-23 15:17 2.75611 101.71311 75 ft 15 kts 73°
2026-04-23 15:17 2.75566 101.71374 75 ft 11 kts 147°
2026-04-23 15:17 2.75478 101.71432 75 ft 18 kts 146°
2026-04-23 15:17 2.75363 101.71511 75 ft 19 kts 145°
2026-04-23 15:18 2.75259 101.71581 75 ft 16 kts 147°
2026-04-23 15:18 2.75167 101.71641 75 ft 16 kts 146°
2026-04-23 15:18 2.75078 101.71701 75 ft 14 kts 146°
2026-04-23 15:18 2.75001 101.71754 75 ft 12 kts 146°
2026-04-23 15:19 2.74948 101.71811 75 ft 10 kts 100°
2026-04-23 15:19 2.74984 101.71896 75 ft 14 kts 56°
2026-04-23 15:19 2.75015 101.71941 75 ft 1 kts 54°
2026-04-23 15:19 2.75016 101.71942 75 ft 0 kts 54°
2026-04-23 15:20 2.75020 101.71949 75 ft 5 kts 54°
2026-04-23 15:20 2.75062 101.72003 75 ft 10 kts 47°
2026-04-23 15:21 2.75122 101.72017 75 ft 9 kts 334°
2026-04-23 15:21 2.75170 101.71985 75 ft 7 kts 326°
2026-04-23 15:21 2.75265 101.71922 75 ft 45 kts 326°
2026-04-23 15:21 2.75751 101.71596 75 ft 123 kts 326°
2026-04-23 15:22 2.76651 101.70994 136 ft 179 kts 326°
2026-04-23 15:22 2.77691 101.70267 832 ft 187 kts 325°
2026-04-23 15:22 2.78769 101.69551 1613 ft 194 kts 327°
2026-04-23 15:22 2.79929 101.68788 2111 ft 211 kts 330°
2026-04-23 15:23 2.81402 101.68256 2527 ft 234 kts 345°
2026-04-23 15:23 2.82978 101.67788 3227 ft 247 kts 341°
2026-04-23 15:23 2.84704 101.67396 3848 ft 263 kts
2026-04-23 15:23 2.86432 101.67915 4668 ft 271 kts 34°
2026-04-23 15:24 2.87616 101.69368 5527 ft 278 kts 67°
2026-04-23 15:24 2.88157 101.71213 6418 ft 282 kts 72°
2026-04-23 15:24 2.88857 101.73047 7249 ft 287 kts 64°
2026-04-23 15:24 2.89652 101.74826 8060 ft 291 kts 64°
2026-04-23 15:25 2.90469 101.76696 8879 ft 296 kts 65°
2026-04-23 15:25 2.91294 101.78575 9671 ft 301 kts 64°
2026-04-23 15:25 2.92143 101.80499 10429 ft 307 kts 64°
2026-04-23 15:25 2.92916 101.82250 10894 ft 319 kts 64°
2026-04-23 15:26 2.93808 101.84271 11548 ft 327 kts 64°
2026-04-23 15:26 2.94740 101.86382 12261 ft 333 kts 64°
2026-04-23 15:26 2.95682 101.88515 12991 ft 337 kts 64°
2026-04-23 15:26 2.96629 101.90660 13705 ft 342 kts 65°
2026-04-23 15:27 2.97584 101.92824 14409 ft 346 kts 65°
2026-04-23 15:27 2.98568 101.95054 15115 ft 350 kts 65°
2026-04-23 15:27 2.99553 101.97285 15792 ft 354 kts 65°
2026-04-23 15:27 3.00549 101.99539 16461 ft 358 kts 65°
2026-04-23 15:28 3.01548 102.01804 17101 ft 362 kts 66°
2026-04-23 15:28 3.02574 102.04128 17745 ft 365 kts 66°
2026-04-23 15:28 3.03568 102.06379 18344 ft 369 kts 66°
2026-04-23 15:28 3.04620 102.08763 18970 ft 372 kts 66°
2026-04-23 15:29 3.05616 102.11021 19553 ft 375 kts 66°
2026-04-23 15:29 3.06652 102.13370 20144 ft 377 kts 67°
2026-04-23 15:29 3.07703 102.15752 20728 ft 380 kts 67°
2026-04-23 15:29 3.08783 102.18201 21303 ft 383 kts 67°
2026-04-23 15:30 3.09849 102.20616 21864 ft 385 kts 67°
2026-04-23 15:30 3.10936 102.23074 22415 ft 387 kts 68°
2026-04-23 15:30 3.12022 102.25538 22943 ft 389 kts 68°
2026-04-23 15:30 3.13097 102.27975 23453 ft 391 kts 68°
2026-04-23 15:31 3.14210 102.30500 23969 ft 393 kts 68°
2026-04-23 15:31 3.15307 102.33042 24466 ft 395 kts 70°
2026-04-23 15:31 3.16179 102.35587 24925 ft 395 kts 77°
2026-04-23 15:31 3.16804 102.38306 25419 ft 395 kts 81°
2026-04-23 15:32 3.17372 102.40984 25872 ft 397 kts 80°
2026-04-23 15:32 3.17970 102.43673 26324 ft 399 kts 80°
2026-04-23 15:32 3.18576 102.46414 26760 ft 401 kts 80°
2026-04-23 15:32 3.19159 102.49114 27180 ft 402 kts 80°
2026-04-23 15:33 3.19748 102.51864 27608 ft 403 kts 80°
2026-04-23 15:33 3.20336 102.54610 28011 ft 405 kts 80°
2026-04-23 15:33 3.20923 102.57365 28402 ft 406 kts 80°
2026-04-23 15:33 3.21515 102.60154 28776 ft 408 kts 80°
2026-04-23 15:34 3.22103 102.62927 29019 ft 413 kts 80°
2026-04-23 15:34 3.22695 102.65720 29468 ft 412 kts 80°
2026-04-23 15:34 3.23293 102.68545 29871 ft 412 kts 80°
2026-04-23 15:34 3.23886 102.71350 30229 ft 413 kts 81°
2026-04-23 15:35 3.24476 102.74146 30562 ft 415 kts 80°
2026-04-23 15:35 3.25074 102.76984 30892 ft 416 kts 80°
2026-04-23 15:35 3.25667 102.79797 31222 ft 417 kts 80°
2026-04-23 15:35 3.26265 102.82621 31547 ft 418 kts 80°
2026-04-23 15:36 3.26866 102.85465 31877 ft 419 kts 80°
2026-04-23 15:36 3.27470 102.88331 32168 ft 420 kts 80°
2026-04-23 15:36 3.28073 102.91193 32464 ft 421 kts 80°
2026-04-23 15:36 3.28677 102.94057 32731 ft 423 kts 80°
2026-04-23 15:37 3.29286 102.96944 32863 ft 427 kts 80°
2026-04-23 15:37 3.30529 103.02850 32858 ft 440 kts 80°
2026-04-23 15:38 3.31800 103.08881 32858 ft 452 kts 80°
2026-04-23 15:38 3.33113 103.15115 32857 ft 459 kts 80°
2026-04-23 15:39 3.34422 103.21325 32858 ft 455 kts 80°
2026-04-23 15:39 3.35720 103.27489 32858 ft 454 kts 80°
2026-04-23 15:40 3.37020 103.33667 32858 ft 455 kts 80°
2026-04-23 15:40 3.38302 103.39844 32857 ft 455 kts 81°
2026-04-23 15:41 3.38885 103.46133 32858 ft 453 kts 89°
2026-04-23 15:41 3.39151 103.52422 32858 ft 453 kts 88°
2026-04-23 15:42 3.39445 103.58626 32858 ft 453 kts 89°
2026-04-23 15:42 3.39719 103.64902 32858 ft 453 kts 89°
2026-04-23 15:43 3.39988 103.71199 32858 ft 453 kts 89°
2026-04-23 15:43 3.40252 103.77486 32858 ft 453 kts 89°
2026-04-23 15:44 3.40515 103.83780 32858 ft 453 kts 89°
2026-04-23 15:44 3.40774 103.90044 32858 ft 453 kts 89°
2026-04-23 15:45 3.41048 103.96343 32858 ft 453 kts 89°
2026-04-23 15:45 3.41373 104.02636 32858 ft 453 kts 88°
2026-04-23 15:46 3.41687 104.08920 32858 ft 453 kts 88°
2026-04-23 15:46 3.42001 104.15176 32858 ft 453 kts 88°
2026-04-23 15:47 3.42322 104.21494 32858 ft 453 kts 88°
2026-04-23 15:47 3.42639 104.27755 32858 ft 453 kts 88°
2026-04-23 15:48 3.42959 104.34080 32858 ft 453 kts 88°
2026-04-23 15:48 3.43273 104.40318 32858 ft 453 kts 88°
2026-04-23 15:49 3.43590 104.46633 32858 ft 453 kts 88°
2026-04-23 15:49 3.43907 104.52929 32858 ft 453 kts 88°
2026-04-23 15:50 3.44229 104.59209 32858 ft 453 kts 88°
2026-04-23 15:50 3.44554 104.65494 32858 ft 453 kts 88°
2026-04-23 15:51 3.44876 104.71755 32858 ft 453 kts 88°
2026-04-23 15:51 3.45200 104.78076 32858 ft 453 kts 88°
2026-04-23 15:52 3.45519 104.84322 32858 ft 453 kts 88°
2026-04-23 15:52 3.45842 104.90623 32858 ft 453 kts 88°
2026-04-23 15:53 3.46164 104.96918 32858 ft 451 kts 88°
2026-04-23 15:53 3.46481 105.03140 32858 ft 449 kts 88°
2026-04-23 15:54 3.46798 105.09351 32858 ft 447 kts 88°
2026-04-23 15:54 3.47113 105.15544 32858 ft 446 kts 88°
2026-04-23 15:55 3.47429 105.21757 32858 ft 447 kts 88°
2026-04-23 15:55 3.47743 105.27935 32858 ft 447 kts 88°
2026-04-23 15:56 3.48057 105.34152 32858 ft 447 kts 88°
2026-04-23 15:56 3.48369 105.40314 32858 ft 447 kts 88°
2026-04-23 15:57 3.48682 105.46525 32858 ft 447 kts 88°
2026-04-23 15:57 3.48995 105.52721 32858 ft 447 kts 88°
2026-04-23 15:58 3.49307 105.58929 32858 ft 447 kts 88°
2026-04-23 15:58 3.49618 105.65112 32858 ft 447 kts 88°
2026-04-23 15:59 3.49929 105.71303 32858 ft 447 kts 88°
2026-04-23 15:59 3.50240 105.77498 32858 ft 447 kts 88°
2026-04-23 16:00 3.50554 105.83715 32858 ft 447 kts 88°
2026-04-23 16:00 3.50874 105.89912 32858 ft 447 kts 88°
2026-04-23 16:01 3.51189 105.96079 32858 ft 447 kts 88°
2026-04-23 16:01 3.51507 106.02294 32858 ft 447 kts 88°
2026-04-23 16:02 3.51823 106.08493 32858 ft 447 kts 88°
2026-04-23 16:02 3.52138 106.14679 32858 ft 447 kts 88°
2026-04-23 16:03 3.52454 106.20890 32858 ft 447 kts 88°
2026-04-23 16:03 3.52736 106.26417 32858 ft 447 kts 88°
2026-04-23 16:04 3.53050 106.32616 32858 ft 447 kts 88°
2026-04-23 16:04 3.53366 106.38818 32864 ft 447 kts 88°
2026-04-23 16:05 3.53634 106.43976 32869 ft 447 kts 88°
2026-04-23 16:05 3.54009 106.51203 32876 ft 447 kts 88°
2026-04-23 16:06 3.54330 106.57415 32881 ft 447 kts 88°
2026-04-23 16:06 3.54649 106.63602 32880 ft 447 kts 88°
2026-04-23 16:07 3.54966 106.69762 32880 ft 447 kts 88°
2026-04-23 16:07 3.55287 106.75991 32879 ft 447 kts 88°
2026-04-23 16:08 3.55605 106.82170 32879 ft 447 kts 88°
2026-04-23 16:08 3.55925 106.88411 32878 ft 449 kts 88°
2026-04-23 16:09 3.56762 106.94598 32878 ft 453 kts 78°
2026-04-23 16:09 3.58358 107.00672 32874 ft 455 kts 77°
2026-04-23 16:10 3.59922 107.06830 32873 ft 456 kts 77°
2026-04-23 16:10 3.61509 107.12960 32874 ft 456 kts 77°
2026-04-23 16:11 3.63101 107.19081 32877 ft 455 kts 77°
2026-04-23 16:11 3.64691 107.25176 32881 ft 455 kts 77°
2026-04-23 16:12 3.66294 107.31306 32885 ft 456 kts 77°
2026-04-23 16:12 3.67897 107.37430 32885 ft 456 kts 77°
2026-04-23 16:13 3.69496 107.43542 32885 ft 456 kts 77°
2026-04-23 16:13 3.71903 107.52739 32885 ft 456 kts 77°
2026-04-23 16:14 3.73501 107.58847 32885 ft 456 kts 77°
2026-04-23 16:14 3.75108 107.64988 32885 ft 456 kts 77°
2026-04-23 16:15 3.76708 107.71108 32885 ft 456 kts 77°
2026-04-23 16:15 3.78306 107.77218 32885 ft 456 kts 77°
2026-04-23 16:16 3.79902 107.83325 32885 ft 455 kts 77°
2026-04-23 16:16 3.81507 107.89465 32885 ft 455 kts 77°
2026-04-23 16:17 3.83107 107.95592 32885 ft 455 kts 77°
2026-04-23 16:17 3.84699 108.01687 32885 ft 455 kts 77°
2026-04-23 16:18 3.86301 108.07822 32885 ft 455 kts 77°
2026-04-23 16:18 3.87899 108.13947 32885 ft 456 kts 77°
2026-04-23 16:19 3.89495 108.20064 32885 ft 456 kts 77°
2026-04-23 16:19 3.91088 108.26174 32885 ft 455 kts 77°
2026-04-23 16:20 3.92684 108.32294 32885 ft 455 kts 77°
2026-04-23 16:20 3.94285 108.38435 32885 ft 455 kts 77°
2026-04-23 16:21 3.95875 108.44539 32885 ft 455 kts 77°
2026-04-23 16:21 3.97478 108.50693 32885 ft 455 kts 77°
2026-04-23 16:22 3.99069 108.56805 32885 ft 455 kts 77°
2026-04-23 16:22 4.00654 108.62894 32885 ft 455 kts 77°
2026-04-23 16:23 4.02251 108.69028 32885 ft 456 kts 77°
2026-04-23 16:23 4.03852 108.75159 32885 ft 456 kts 77°
2026-04-23 16:24 4.05464 108.81298 32885 ft 455 kts 77°
2026-04-23 16:24 4.07068 108.87416 32885 ft 455 kts 77°
2026-04-23 16:25 4.08664 108.93507 32885 ft 456 kts 77°
2026-04-23 16:25 4.10273 108.99651 32885 ft 455 kts 76°
2026-04-23 16:26 4.11871 109.05755 32885 ft 453 kts 76°
2026-04-23 16:26 4.13452 109.11795 32885 ft 451 kts 76°
2026-04-23 16:27 4.15036 109.17848 32885 ft 450 kts 75°
2026-04-23 16:27 4.16628 109.23901 32885 ft 451 kts 75°
2026-04-23 16:28 4.18213 109.29985 32885 ft 451 kts 75°
2026-04-23 16:28 4.19795 109.36041 32885 ft 451 kts 75°
2026-04-23 16:29 4.21370 109.42072 32885 ft 451 kts 75°
2026-04-23 16:29 4.22960 109.48161 32885 ft 451 kts 75°
2026-04-23 16:30 4.24543 109.54221 32885 ft 451 kts 75°
2026-04-23 16:30 4.26122 109.60284 32885 ft 451 kts 75°
2026-04-23 16:31 4.27674 109.66335 32885 ft 451 kts 75°
2026-04-23 16:31 4.29235 109.72417 32885 ft 451 kts 75°
2026-04-23 16:32 4.30781 109.78440 32885 ft 451 kts 75°
2026-04-23 16:32 4.32341 109.84519 32885 ft 451 kts 75°
2026-04-23 16:33 4.33903 109.90605 32885 ft 451 kts 75°
2026-04-23 16:33 4.35453 109.96652 32885 ft 451 kts 75°
2026-04-23 16:34 4.36827 110.02007 32885 ft 451 kts 75°
2026-04-23 16:34 4.38484 110.08471 32885 ft 451 kts 75°
2026-04-23 16:35 4.40045 110.14562 32885 ft 450 kts 75°
2026-04-23 16:35 4.41597 110.20622 32885 ft 450 kts 75°
2026-04-23 16:36 4.43149 110.26683 32885 ft 450 kts 75°
2026-04-23 16:36 4.44695 110.32721 32885 ft 450 kts 75°
2026-04-23 16:37 4.46253 110.38813 32885 ft 450 kts 75°
2026-04-23 16:37 4.47805 110.44879 32885 ft 450 kts 75°
2026-04-23 16:38 4.49360 110.50958 32885 ft 450 kts 75°
2026-04-23 16:38 4.50905 110.57003 32885 ft 450 kts 75°
2026-04-23 16:39 4.52456 110.63075 32885 ft 450 kts 75°
2026-04-23 16:39 4.54009 110.69156 32885 ft 451 kts 75°
2026-04-23 16:40 4.55565 110.75247 32885 ft 451 kts 75°
2026-04-23 16:40 4.57112 110.81311 32885 ft 450 kts 75°
2026-04-23 16:41 4.58653 110.87353 32885 ft 450 kts 75°
2026-04-23 16:41 4.60207 110.93441 32880 ft 450 kts 75°
2026-04-23 16:42 4.61746 110.99473 32873 ft 449 kts 76°
2026-04-23 16:42 4.63288 111.05524 32866 ft 448 kts 76°
2026-04-23 16:43 4.64827 111.11568 32859 ft 448 kts 76°
2026-04-23 16:43 4.66362 111.17595 32858 ft 448 kts 76°
2026-04-23 16:44 4.67899 111.23636 32858 ft 448 kts 76°
2026-04-23 16:44 4.69433 111.29662 32858 ft 448 kts 76°
2026-04-23 16:45 4.70966 111.35693 32858 ft 448 kts 76°
2026-04-23 16:45 4.72500 111.41725 32858 ft 448 kts 76°
2026-04-23 16:46 4.74039 111.47780 32858 ft 448 kts 76°
2026-04-23 16:46 4.75572 111.53815 32858 ft 448 kts 76°
2026-04-23 16:47 4.77111 111.59873 32858 ft 448 kts 76°
2026-04-23 16:47 4.78638 111.65887 32858 ft 448 kts 76°
2026-04-23 16:48 4.80183 111.71973 32858 ft 448 kts 76°
2026-04-23 16:48 4.81718 111.78024 32858 ft 448 kts 76°
2026-04-23 16:49 4.83250 111.84065 32858 ft 448 kts 76°
2026-04-23 16:49 4.84797 111.90095 32859 ft 448 kts 76°
2026-04-23 16:50 4.86373 111.96140 32863 ft 448 kts 76°
2026-04-23 16:50 4.87936 112.02168 32867 ft 448 kts 76°
2026-04-23 16:51 4.89503 112.08209 32873 ft 448 kts 76°
2026-04-23 16:51 4.91060 112.14217 32878 ft 448 kts 76°
2026-04-23 16:52 4.92626 112.20261 32881 ft 448 kts 76°
2026-04-23 16:52 4.94186 112.26286 32884 ft 448 kts 76°
2026-04-23 16:53 4.95756 112.32354 32885 ft 448 kts 76°
2026-04-23 16:53 4.97314 112.38376 32885 ft 449 kts 76°
2026-04-23 16:54 4.98878 112.44425 32885 ft 450 kts 76°
2026-04-23 16:54 5.00450 112.50507 32885 ft 452 kts 76°
2026-04-23 16:55 5.02023 112.56594 32885 ft 453 kts 76°
2026-04-23 16:55 5.03601 112.62702 32885 ft 454 kts 76°
2026-04-23 16:56 5.05190 112.68858 32885 ft 456 kts 76°
2026-04-23 16:56 5.06777 112.75002 32885 ft 457 kts 76°
2026-04-23 16:57 5.08373 112.81187 32885 ft 458 kts 76°
2026-04-23 16:57 5.09959 112.87339 32885 ft 459 kts 76°
2026-04-23 16:58 5.11560 112.93552 32885 ft 460 kts 76°
2026-04-23 16:58 5.13159 112.99755 32885 ft 460 kts 76°
2026-04-23 16:59 5.14748 113.05926 32885 ft 459 kts 76°
2026-04-23 16:59 5.16346 113.12134 32885 ft 459 kts 76°
2026-04-23 17:00 5.17931 113.18292 32885 ft 459 kts 76°
2026-04-23 17:00 5.19529 113.24503 32885 ft 459 kts 76°
2026-04-23 17:01 5.21126 113.30718 32885 ft 459 kts 76°
2026-04-23 17:01 5.22710 113.36880 32885 ft 459 kts 76°
2026-04-23 17:02 5.24300 113.43070 32885 ft 459 kts 76°
2026-04-23 17:02 5.25895 113.49280 32885 ft 459 kts 76°
2026-04-23 17:03 5.27475 113.55441 32885 ft 459 kts 76°
2026-04-23 17:03 5.29075 113.61669 32885 ft 459 kts 76°
2026-04-23 17:04 5.30662 113.67859 32885 ft 459 kts 76°
2026-04-23 17:04 5.32250 113.74056 32885 ft 459 kts 76°
2026-04-23 17:05 5.33829 113.80221 32886 ft 459 kts 76°
2026-04-23 17:05 5.35412 113.86401 32889 ft 459 kts 76°
2026-04-23 17:06 5.37004 113.92619 32894 ft 459 kts 76°
2026-04-23 17:06 5.38586 113.98802 32901 ft 459 kts 76°
2026-04-23 17:07 5.40168 114.04988 32906 ft 459 kts 76°
2026-04-23 17:07 5.41746 114.11162 32909 ft 459 kts 76°
2026-04-23 17:08 5.43335 114.17391 32911 ft 459 kts 76°
2026-04-23 17:08 5.44904 114.23570 32912 ft 459 kts 76°
2026-04-23 17:09 5.46477 114.29759 32912 ft 459 kts 76°
2026-04-23 17:09 5.48057 114.35984 32912 ft 459 kts 76°
2026-04-23 17:10 5.49628 114.42176 32662 ft 465 kts 76°
2026-04-23 17:10 5.50430 114.45331 32035 ft 465 kts 76°
2026-04-23 17:10 5.51216 114.48428 31478 ft 460 kts 76°
2026-04-23 17:11 5.52003 114.51530 30891 ft 455 kts 76°
2026-04-23 17:11 5.52774 114.54570 30308 ft 451 kts 76°
2026-04-23 17:11 5.53546 114.57620 29721 ft 447 kts 77°
2026-04-23 17:11 5.54308 114.60626 29140 ft 444 kts 77°
2026-04-23 17:12 5.55052 114.63566 28570 ft 440 kts 77°
2026-04-23 17:12 5.55680 114.66042 28088 ft 437 kts 77°
2026-04-23 17:12 5.56539 114.69436 27426 ft 434 kts 77°
2026-04-23 17:12 5.57281 114.72363 26852 ft 431 kts 77°
2026-04-23 17:13 5.58015 114.75256 26285 ft 428 kts 77°
2026-04-23 17:13 5.58742 114.78126 25723 ft 425 kts 77°
2026-04-23 17:13 5.59462 114.80971 25165 ft 422 kts 78°
2026-04-23 17:13 5.60171 114.83779 24614 ft 419 kts 78°
2026-04-23 17:14 5.60883 114.86592 24061 ft 416 kts 78°
2026-04-23 17:14 5.61601 114.89431 23501 ft 414 kts 78°
2026-04-23 17:14 5.62297 114.92184 22959 ft 412 kts 78°
2026-04-23 17:14 5.63007 114.94997 22404 ft 418 kts 78°
2026-04-23 17:15 5.63722 114.97835 21844 ft 427 kts 78°
2026-04-23 17:15 5.64454 115.00738 21267 ft 433 kts 78°
2026-04-23 17:15 5.65195 115.03671 20685 ft 439 kts 78°
2026-04-23 17:15 5.65954 115.06673 20087 ft 445 kts 78°
2026-04-23 17:16 5.66705 115.09682 19486 ft 451 kts 73°
2026-04-23 17:16 5.67474 115.12771 18871 ft 457 kts 73°
2026-04-23 17:16 5.68258 115.15852 18270 ft 463 kts 73°
2026-04-23 17:16 5.69101 115.19009 17608 ft 469 kts 72°
2026-04-23 17:17 5.70029 115.22081 16972 ft 459 kts 71°
2026-04-23 17:17 5.70965 115.25104 16368 ft 446 kts 71°
2026-04-23 17:17 5.71848 115.28017 15778 ft 435 kts 71°
2026-04-23 17:17 5.72711 115.30890 15190 ft 425 kts 72°
2026-04-23 17:18 5.74266 115.36512 13999 ft 418 kts 79°
2026-04-23 17:18 5.74580 115.39441 13384 ft 425 kts 90°
2026-04-23 17:18 5.74325 115.42320 12820 ft 414 kts 101°
2026-04-23 17:19 5.73798 115.45132 12344 ft 403 kts 103°
2026-04-23 17:19 5.73286 115.47929 11835 ft 412 kts 102°
2026-04-23 17:19 5.72785 115.50780 11264 ft 421 kts 101°
2026-04-23 17:19 5.72274 115.53658 10670 ft 417 kts 101°
2026-04-23 17:20 5.71769 115.56488 10159 ft 405 kts 101°
2026-04-23 17:20 5.70816 115.61810 9485 ft 383 kts 101°
2026-04-23 17:21 5.69981 115.66454 8614 ft 372 kts 100°
2026-04-23 17:21 5.69526 115.68983 8140 ft 366 kts 100°
2026-04-23 17:21 5.68637 115.73933 7208 ft 356 kts 99°
2026-04-23 17:22 5.68202 115.76351 6719 ft 352 kts 99°
2026-04-23 17:22 5.67339 115.81142 5800 ft 344 kts 99°
2026-04-23 17:23 5.66492 115.85841 4922 ft 338 kts 99°
2026-04-23 17:23 5.66082 115.88117 4787 ft 325 kts 99°
2026-04-23 17:23 5.66439 115.92280 4553 ft 282 kts 58°
2026-04-23 17:24 5.67590 115.93757 4270 ft 263 kts 40°
2026-04-23 17:24 5.69052 115.94765 3989 ft 247 kts 22°
2026-04-23 17:24 5.72128 115.96030 3637 ft 230 kts 20°
2026-04-23 17:25 5.74897 115.97178 3279 ft 203 kts 21°
2026-04-23 17:25 5.76151 115.97707 3091 ft 189 kts 21°
2026-04-23 17:26 5.78378 115.98646 2793 ft 155 kts 21°
2026-04-23 17:26 5.80283 115.99449 2500 ft 144 kts 21°
2026-04-23 17:27 5.82132 116.00230 2109 ft 144 kts 21°
2026-04-23 17:27 5.83056 116.00619 1910 ft 144 kts 21°
2026-04-23 17:27 5.83974 116.01006 1716 ft 145 kts 21°
2026-04-23 17:27 5.84904 116.01399 1515 ft 144 kts 22°
2026-04-23 17:28 5.85832 116.01790 1319 ft 144 kts 22°
2026-04-23 17:28 5.86749 116.02177 1125 ft 144 kts 22°
2026-04-23 17:28 5.87666 116.02564 931 ft 144 kts 22°
2026-04-23 17:28 5.88593 116.02956 736 ft 144 kts 22°
2026-04-23 17:29 5.89513 116.03343 543 ft 144 kts 22°
2026-04-23 17:29 5.90433 116.03732 351 ft 144 kts 22°
2026-04-23 17:29 5.92277 116.04516 20 ft 139 kts 23°
2026-04-23 17:30 5.93036 116.04832 15 ft 88 kts 22°
2026-04-23 17:30 5.93671 116.05100 15 ft 25 kts 23°
2026-04-23 17:30 5.93823 116.05164 15 ft 23 kts 22°
2026-04-23 17:31 5.93949 116.05255 15 ft 15 kts 46°
2026-04-23 17:31 5.94015 116.05329 15 ft 12 kts 52°
2026-04-23 17:31 5.94062 116.05395 15 ft 10 kts 66°
2026-04-23 17:31 5.94010 116.05429 15 ft 15 kts 197°
2026-04-23 17:32 5.93893 116.05380 15 ft 18 kts 203°
2026-04-23 17:32 5.93781 116.05332 15 ft 16 kts 202°
2026-04-23 17:32 5.93684 116.05292 15 ft 13 kts 202°
2026-04-23 17:32 5.93603 116.05258 15 ft 12 kts 202°
2026-04-23 17:33 5.93524 116.05225 15 ft 12 kts 202°
2026-04-23 17:33 5.93435 116.05187 15 ft 14 kts 203°
2026-04-23 17:33 5.93340 116.05147 15 ft 16 kts 203°
2026-04-23 17:33 5.93233 116.05101 15 ft 17 kts 202°
2026-04-23 17:34 5.93117 116.05052 15 ft 18 kts 203°
2026-04-23 17:34 5.92994 116.05000 15 ft 19 kts 203°
2026-04-23 17:34 5.92842 116.05012 15 ft 7 kts 116°
2026-04-23 17:35 5.92797 116.05036 15 ft 11 kts 186°
2026-04-23 17:35 5.92634 116.04971 15 ft 10 kts 202°
2026-04-23 17:35 5.92570 116.04945 15 ft 9 kts 204°
2026-04-23 17:36 5.92516 116.04921 15 ft 7 kts 201°
2026-04-23 17:36 5.92498 116.04916 15 ft 3 kts 179°
2026-04-23 17:36 5.92478 116.04950 15 ft 6 kts 111°
2026-04-23 17:36 5.92471 116.04967 15 ft 1 kts 113°
2026-04-23 17:37 5.92470 116.04967 15 ft 0 kts 113°